岩本彗星

C/2020 A2 ( Iwamoto )

English version
Home page
Updated on March 26, 2020

---------------------------------------------------------------------

・ プロフィール

発見日 2020年1月8日、13日
発見光度 12.8等、14.5等
発見者 Masayuki Iwamoto (Awa, Tokushima-ken, Japan), Gennady Borisov (MARGO observatory near Nauchnij, Crimea)

・ 写真集

・ 軌道要素

Epoch 2019 Dec. 23.0 TT = JDT 2458840.5
T 2020 Jan. 8.32087 TT                                  Rudenko
q   0.9780146            (2000.0)            P               Q
z  +0.0009041      Peri.   68.20904     -0.35081247     -0.44393944
 +/-0.0000312      Node   286.37891     -0.76702125     +0.64134139
e   0.9991158      Incl.  120.75007     +0.53722343     +0.62577871
From 355 observations 2020 Jan. 10-Mar. 18, mean residual 0".6.

・ 星図

・ 光度変化

        m1 = 10.6 + 5 logΔ + 25.0 log r(t - 25)  [  ,40]  (              〜2020年 2月17日)
        m1 = 10.0 + 5 logΔ + 10.0 log r          [40,  ]  (2020年 2月17日〜              )

---------------------------------------------------------------------

軌道要素はM.P.E.C. 2020-F67に掲載されたものです。
星図はステラナビゲータ Ver.10 (アストロアーツ) で作成したものです。
光度グラフはComet for Windowsで作成したものです。

---------------------------------------------------------------------

Copyright(C) Seiichi Yoshida (comet@aerith.net). All rights reserved.